Location: North Evanston
(42.0634°N, 87.6976°W)
Time: 14:03:02
(UTC+00:00)

Vanguard 3 - Pass Details

Date: 13 May 2026
Orbit: 507 x 3204 km, 33.3° (Epoch: 6 June)

Event Time Altitude Azimuth Distance (km) Brightness Sun altitude
Rises 03:17:15 0° 276° (W) 6,064 12.3 -20.4°
Reaches altitude 10° 03:24:48 10° 253° (WSW) 4,342 11.1 -21.2°
Maximum altitude 03:28:56 13° 232° (SW) 3,688 10.5 -21.7°
Drops below altitude 10° 03:32:25 10° 209° (SSW) 3,499 10.1 -22.0°
Enters shadow 03:33:21 - 203° (SSW) 3,522 10.1 -22.1°
Sets 03:37:02 0° 181° (S) 3,917 - -22.5°
